This is the latest recevied weather packets stored in our database for station/object K0QJ. If no packets are shown the sender has not sent any weather packets the latest 10 day(s).
| Time | Temp. | Humidity | Pressure | Rain* | Wind** | Luminosity | Snow |
|---|---|---|---|---|---|---|---|
| 1778001317 | 7.78° C | 96% | 1011.7 hPa | 0 mm | - | 183 W/m² | - |
| 1778001014 | 7.78° C | 96% | 1012.1 hPa | 0 mm | - | 94 W/m² | - |
| 1778000711 | 7.22° C | 96% | 1011.7 hPa | 0 mm | - | 85 W/m² | - |
| 1778000407 | 7.22° C | 96% | 1011.8 hPa | 0 mm | - | 66 W/m² | - |
| 1778000102 | 7.78° C | 96% | 1011.7 hPa | 0 mm | - | 105 W/m² | - |
| 1777999798 | 7.22° C | 96% | 1011.4 hPa | 1.27 mm | - | 148 W/m² | - |
| 1777999495 | 7.78° C | 96% | 1011.6 hPa | 1.27 mm | - | 94 W/m² | - |
| 1777999193 | 7.22° C | 96% | 1011.5 hPa | 1.78 mm | - | 124 W/m² | - |
| 1777998891 | 7.22° C | 96% | 1011.3 hPa | 1.78 mm | - | 125 W/m² | - |
| 1777998590 | 7.22° C | 96% | 1011.7 hPa | 0 mm | - | 103 W/m² | - |
| 1777998285 | 7.22° C | 96% | 1011.4 hPa | 0 mm | - | 66 W/m² | - |
| 1777997982 | 7.22° C | 96% | 1011.6 hPa | 1.27 mm | - | 43 W/m² | - |
| 1777997679 | 7.22° C | 96% | 1011.8 hPa | 1.27 mm | - | 51 W/m² | - |
| 1777997377 | 7.78° C | 96% | 1011.8 hPa | 1.78 mm | - | 44 W/m² | - |
| 1777997075 | 7.78° C | 96% | 1011.5 hPa | 3.05 mm | - | 70 W/m² | - |
| 1777996771 | 7.78° C | 96% | 1011.7 hPa | 3.05 mm | - | 111 W/m² | - |
| 1777996467 | 7.78° C | 96% | 1011.7 hPa | 3.05 mm | - | 85 W/m² | - |
| 1777996163 | 7.78° C | 96% | 1011.9 hPa | 1.27 mm | - | 65 W/m² | - |
| 1777995855 | 7.78° C | 96% | 1011.9 hPa | 1.78 mm | - | 42 W/m² | - |
| 1777995551 | 7.78° C | 96% | 1011.8 hPa | 1.78 mm | - | 56 W/m² | - |
| 1777995248 | 7.78° C | 96% | 1012 hPa | 0 mm | - | 46 W/m² | - |
| 1777994945 | 7.78° C | 96% | 1011.3 hPa | 0 mm | - | 36 W/m² | - |
| 1777994641 | 7.78° C | 96% | 1011.2 hPa | 0 mm | - | 68 W/m² | - |
| 1777994336 | 7.78° C | 96% | 1011.2 hPa | 0 mm | - | 54 W/m² | - |
| 1777994033 | 7.78° C | 96% | 1011.2 hPa | 0 mm | - | 58 W/m² | - |
* Rain latest hour (hover to see other rain measurements)
** Current wind speed in m/s (hover to see current wind gust speed)